Theta_e
352 352 352 352 351 350 350 349 348 350 351 349 348 350 348 347 350 351 350 349 347 346 345 344 344 345 348 347 348 349 348 348 347 347 349 348 350 349 341 338 343 348 350 349 347 345 345 345 344 339 334 330 328 326 325 325 327 326 326 323 322 323 325 327 329 331 332 333 333 333 332 333 334 334
354 353 354 355 353 351 351 350 349 351 352 351 351 353 353 351 353 352 349 347 347 348 347 345 346 347 347 347 349 349 348 348 349 348 349 348 349 348 342 340 346 349 349 348 345 344 345 345 342 339 337 335 331 330 329 328 328 329 327 325 322 322 324 326 328 329 329 329 330 330 329 330 332 332
354 354 355 354 352 352 352 351 351 352 352 353 352 352 354 353 353 352 349 347 347 347 345 344 345 345 345 348 350 349 348 349 350 347 347 348 347 346 342 344 348 348 347 346 344 344 345 343 340 339 339 337 335 335 332 330 331 331 329 326 323 322 322 324 327 327 328 326 326 327 327 327 330 331
356 357 356 353 350 352 352 350 351 353 352 352 352 353 354 354 353 352 352 351 349 346 343 343 344 344 345 347 349 350 350 352 352 348 348 349 348 345 345 348 349 347 346 345 343 344 343 340 339 339 339 337 338 339 335 333 334 334 332 330 326 323 322 322 325 326 327 327 325 325 325 325 328 331
355 356 355 351 348 348 347 346 348 351 352 352 352 352 352 353 353 354 355 355 354 350 346 346 345 346 347 348 350 353 353 353 353 352 351 351 350 349 348 349 348 347 346 345 343 343 340 339 339 339 338 338 342 341 336 334 337 337 335 333 329 326 324 323 324 325 326 327 327 325 324 323 325 328
348 351 350 347 346 346 347 346 349 352 352 351 351 352 353 353 354 354 354 355 354 350 348 348 348 348 351 352 351 352 352 352 353 352 352 353 352 351 350 348 348 347 345 344 342 340 339 339 339 338 338 341 345 342 336 336 340 342 340 336 334 332 331 329 326 324 325 326 327 326 324 323 323 324
347 348 350 350 350 351 351 351 353 354 353 351 352 352 352 353 352 351 352 353 353 351 350 350 349 349 351 351 350 351 353 354 354 353 352 350 348 347 348 349 349 348 345 343 341 341 341 339 338 338 342 345 345 340 338 340 343 345 345 342 339 339 339 337 333 329 326 325 326 327 324 323 322 322
354 354 355 356 355 354 353 352 353 353 353 351 352 352 353 354 353 353 354 355 355 353 352 350 349 349 349 349 350 352 353 353 353 352 350 347 344 343 347 349 349 347 345 344 343 342 340 338 339 344 346 345 343 341 343 345 344 347 349 346 344 344 344 342 340 336 331 327 326 327 326 323 322 322
356 355 355 355 356 355 355 354 354 354 353 353 354 354 354 354 354 354 355 354 353 353 353 351 349 349 349 349 351 352 350 349 348 347 346 345 344 344 345 346 347 347 347 347 343 340 339 342 346 347 346 342 342 344 345 345 345 349 352 351 348 347 347 346 344 341 337 332 327 327 327 325 323 322
354 353 352 352 353 353 353 354 354 355 354 354 355 354 352 353 353 353 353 353 354 354 354 353 351 351 351 350 350 349 348 347 344 343 345 344 344 343 343 344 347 348 347 343 339 340 344 347 346 343 341 340 342 344 344 345 348 351 353 353 351 350 350 349 347 344 340 336 332 328 327 327 325 322
355 355 352 352 352 351 350 351 353 353 353 353 353 353 353 353 354 354 354 354 354 353 352 352 351 350 349 348 347 345 345 344 345 345 345 344 342 342 344 346 347 344 340 337 338 344 347 344 340 339 338 340 341 342 344 348 352 353 354 354 353 352 352 351 348 345 342 339 336 332 329 327 327 325
355 354 353 351 350 349 349 349 350 352 352 351 351 351 353 353 353 354 353 350 349 348 346 344 342 344 345 345 346 346 345 345 346 345 344 343 342 344 345 344 341 338 336 337 340 343 343 340 339 341 340 340 340 342 347 352 354 355 355 354 353 352 353 352 347 344 343 341 340 338 334 331 328 327
354 353 352 350 348 347 347 349 350 349 349 349 348 349 349 348 347 345 343 341 341 342 343 341 341 345 348 349 349 347 346 346 345 344 343 344 344 344 341 338 337 337 338 340 342 343 343 343 344 345 344 341 342 346 351 354 355 355 355 354 353 353 353 351 347 343 343 344 343 342 341 338 334 331
353 352 350 349 349 348 347 347 349 348 349 348 348 345 342 339 337 336 336 336 337 339 340 341 343 347 348 349 347 346 344 345 345 345 345 344 341 339 338 338 338 338 340 343 345 345 344 346 348 348 345 344 346 351 353 354 355 354 354 354 354 354 354 351 347 346 346 345 344 345 345 344 342 339
353 352 351 349 349 347 346 348 349 349 350 350 348 346 343 340 339 340 341 342 341 341 342 343 344 345 347 347 346 345 346 347 346 346 344 343 343 343 344 344 341 339 342 345 346 345 344 348 350 349 348 348 350 352 353 354 354 354 354 355 355 354 354 353 351 351 350 347 347 347 346 346 346 345
350 351 351 351 350 348 347 348 348 349 351 351 349 349 349 346 345 344 345 346 345 345 345 345 345 346 346 346 345 345 347 347 345 345 344 345 347 349 349 347 344 340 342 345 346 346 345 349 352 351 350 350 351 352 353 353 354 355 355 354 355 355 355 356 355 354 353 352 352 352 350 348 347 347
348 349 351 351 350 349 349 348 348 349 350 350 349 349 349 348 346 346 345 346 347 348 348 347 348 347 347 347 347 347 347 347 346 347 346 347 350 351 351 349 345 342 344 347 348 348 348 351 353 352 351 351 352 352 353 354 355 355 355 355 356 357 357 357 356 355 355 355 356 356 354 353 351 349
348 347 349 349 348 349 350 350 350 352 352 351 350 350 349 348 347 346 347 348 350 349 348 348 348 348 349 349 349 349 348 348 348 348 348 348 350 350 350 348 346 345 347 350 352 353 353 354 354 353 353 353 353 353 354 355 355 356 356 356 356 356 356 356 356 356 356 356 357 358 357 356 355 354
347 346 346 347 348 349 351 351 351 353 354 354 353 351 351 350 348 348 349 351 351 350 349 348 348 349 351 351 351 351 351 351 350 349 350 349 349 349 349 348 347 348 350 352 354 355 355 354 354 354 355 354 354 354 354 354 356 357 356 356 355 355 356 357 357 356 356 356 357 357 357 356 357 357
346 347 346 346 348 348 350 350 351 353 353 353 352 351 351 351 348 348 351 353 353 351 349 348 348 349 350 351 351 352 352 351 350 350 350 350 350 350 349 349 349 351 351 352 354 354 354 354 355 355 355 354 354 353 353 353 355 355 355 355 354 354 355 356 356 356 355 356 356 356 356 356 357 357
345 346 345 347 347 348 349 350 350 351 351 351 351 351 351 350 349 349 352 353 352 350 349 348 349 348 348 349 350 350 351 351 351 350 350 351 351 351 351 352 352 353 353 353 354 355 354 354 354 354 353 353 353 352 351 351 351 351 351 352 353 353 353 353 355 356 356 356 356 356 356 356 356 357
347 346 346 347 348 348 349 348 348 350 352 352 351 350 350 350 349 350 351 351 350 350 349 349 349 349 350 350 350 350 350 352 352 352 351 352 352 352 353 354 353 353 354 353 353 354 353 353 352 353 351 350 349 350 350 349 349 350 350 351 352 351 352 352 354 356 356 357 357 356 356 356 356 356
350 349 347 347 348 349 350 350 350 351 351 351 351 350 350 350 350 351 351 351 351 350 350 350 351 351 352 351 350 351 352 353 353 352 353 352 352 353 353 353 353 353 353 354 353 352 352 352 352 351 350 351 350 349 349 349 349 349 350 350 351 351 352 352 352 353 354 355 356 357 356 356 356 356
351 351 349 349 348 350 350 351 351 351 350 351 351 350 350 350 349 350 350 350 351 350 350 350 351 351 351 351 351 351 352 352 351 351 352 352 353 353 352 352 352 351 352 352 352 351 350 351 351 350 351 351 351 350 349 349 349 349 350 350 351 351 351 351 350 350 352 353 354 356 356 356 356 356
350 349 349 350 349 350 350 350 349 348 348 348 347 346 346 346 346 346 346 346 347 347 349 350 351 352 352 352 351 351 352 352 350 350 350 348 347 346 347 347 347 349 350 350 350 350 350 350 350 350 350 351 351 350 349 349 348 349 350 350 350 350 350 350 350 349 349 350 352 354 355 355 356 356
347 346 345 345 345 345 345 343 342 340 339 337 335 335 335 335 335 335 335 337 341 344 346 347 347 346 345 344 343 343 344 343 342 341 339 335 333 335 335 335 336 339 340 339 340 341 343 344 346 349 351 350 350 349 349 348 348 349 350 350 349 349 350 350 349 348 348 348 349 351 352 354 356 356
340 339 337 336 336 335 334 333 332 330 328 327 326 326 326 326 328 331 333 336 339 337 334 333 332 331 331 331 330 329 329 329 327 326 325 323 323 325 324 324 325 325 325 326 326 328 333 339 343 347 349 348 348 347 346 346 347 347 348 349 348 348 348 348 347 347 348 349 350 350 352 353 354 354
332 331 331 329 328 327 326 325 324 322 321 321 321 320 321 322 327 333 336 337 334 327 322 321 322 321 321 321 321 320 319 318 317 317 318 317 317 317 316 316 317 317 317 318 317 324 336 342 344 345 345 344 343 341 340 340 340 339 341 342 342 341 339 339 340 341 343 346 349 351 352 352 352 353
324 323 322 321 320 319 319 318 317 317 318 319 318 320 319 319 324 331 333 331 327 321 318 317 315 315 314 313 313 313 312 312 315 317 317 315 313 312 311 311 311 312 312 312 316 329 341 344 342 340 339 338 339 339 337 335 332 328 329 329 330 329 329 329 329 330 335 344 350 351 351 351 351 351
315 315 315 314 314 314 313 314 316 320 323 321 320 322 322 319 323 328 327 324 321 317 315 314 311 311 310 310 310 310 309 311 316 318 316 312 309 308 308 308 309 308 309 315 326 334 338 338 337 337 336 335 335 333 329 325 322 321 321 321 321 323 324 324 326 333 339 344 346 347 347 347 348 349
312 312 312 311 313 313 312 314 320 325 326 325 324 325 324 320 323 326 325 321 316 313 311 310 308 308 308 308 308 308 307 309 311 311 309 307 307 308 308 307 308 308 311 320 328 329 324 322 324 328 330 328 322 318 315 313 312 314 315 315 318 322 325 327 334 342 345 344 341 338 335 334 336 339
311 311 311 315 321 320 318 320 324 325 325 325 325 326 323 320 323 326 324 319 314 309 308 307 306 306 307 306 306 306 306 307 307 306 306 307 307 307 307 307 308 308 311 316 319 317 315 315 315 315 316 314 310 308 309 309 310 313 316 319 325 334 338 340 342 343 343 342 337 330 323 321 322 325
309 311 316 324 328 325 323 324 326 325 324 324 325 324 321 320 324 326 323 318 313 308 306 306 306 306 306 306 307 308 309 308 306 306 307 309 308 308 309 309 308 309 312 315 317 318 318 317 314 311 309 308 308 309 313 316 319 324 328 333 337 341 344 345 345 344 342 336 327 319 314 316 317 318
308 313 321 327 328 326 324 325 326 325 323 323 323 322 321 321 323 324 321 317 312 307 306 307 307 307 307 309 309 310 310 308 305 307 309 310 311 311 311 309 310 316 320 320 320 321 321 317 311 308 307 307 308 310 316 325 332 336 338 340 342 343 344 343 341 338 331 322 316 313 312 313 312 313
310 317 324 326 326 326 324 324 325 324 323 322 323 322 321 321 321 322 321 316 310 308 311 311 308 306 307 308 308 308 308 308 309 311 313 314 316 316 315 316 318 320 320 318 316 316 315 312 310 311 311 311 310 309 314 324 332 334 333 333 333 333 331 328 324 320 317 314 315 318 319 317 316 317
312 320 326 326 325 326 324 323 324 323 322 322 322 321 320 320 320 321 319 314 310 313 316 314 309 307 307 308 308 309 310 313 315 316 318 319 319 318 319 320 320 317 316 317 317 314 313 313 317 320 321 320 321 320 316 314 318 319 317 315 315 314 313 313 312 314 317 320 324 329 332 334 334 334
316 321 325 324 324 324 323 322 322 321 320 320 320 320 320 320 319 318 316 312 312 316 316 310 308 309 310 309 310 312 314 316 318 319 319 319 318 318 318 319 318 317 317 318 316 315 316 318 319 320 321 322 323 323 318 310 306 310 311 311 312 311 311 315 319 321 324 326 328 330 332 333 331 329
320 322 323 322 322 322 321 321 321 320 320 320 319 319 319 318 318 317 315 314 314 314 311 310 311 314 313 314 315 316 316 317 318 318 318 318 318 318 317 317 317 317 316 315 313 314 316 317 317 318 320 321 320 319 317 313 309 307 309 314 318 319 318 321 324 325 324 324 324 324 324 324 323 319
322 323 323 322 321 321 321 321 320 320 319 319 319 318 318 317 317 316 315 314 314 313 313 314 315 315 315 316 316 316 316 316 316 317 317 316 317 316 316 316 316 315 314 313 313 314 314 315 315 317 317 316 315 315 315 315 315 312 309 315 319 322 322 322 323 322 322 323 323 322 321 320 318 315
321 322 321 321 321 320 320 320 319 319 318 318 317 317 317 316 316 315 314 314 314 314 314 316 315 315 315 315 315 315 315 315 315 315 315 315 315 315 314 314 313 313 313 313 314 314 313 313 313 313 312 312 313 314 315 316 317 317 317 317 318 319 320 322 322 322 323 323 322 321 319 318 318 317
319 320 320 319 319 319 318 318 318 317 317 316 316 315 315 315 314 314 314 314 314 314 314 314 314 314 314 314 313 313 313 313 313 313 313 313 313 313 312 311 311 311 312 313 313 312 312 312 312 311 311 312 313 314 316 317 317 317 317 317 316 317 318 319 320 320 321 320 319 320 321 322 323 324
319 319 319 318 318 318 317 317 317 316 315 314 314 314 313 313 313 313 314 314 313 313 313 313 313 312 312 312 311 312 312 311 311 311 311 310 310 310 309 309 310 311 311 311 311 311 311 310 310 310 311 312 313 314 315 315 316 316 316 316 316 316 316 316 316 318 319 319 320 321 322 323 323 324
319 318 318 318 317 317 316 316 315 314 313 313 312 312 312 312 312 312 312 312 312 312 312 312 311 311 311 310 310 310 310 309 309 308 308 307 307 307 307 308 308 309 309 309 309 309 309 309 309 310 311 312 313 314 314 314 315 315 315 315 315 315 315 315 316 317 317 317 318 319 320 320 321 322
318 318 318 318 318 316 315 315 314 313 312 311 311 311 311 311 311 311 311 311 310 310 310 310 310 310 310 309 309 309 308 308 307 306 306 305 305 305 305 306 306 306 306 307 307 307 307 308 308 309 310 312 312 313 313 313 313 314 314 314 314 315 315 315 315 315 314 315 316 318 319 320 321 321
316 316 316 317 318 317 316 314 312 311 311 310 310 310 310 310 310 309 309 309 309 309 309 309 308 308 308 308 308 307 307 306 305 304 304 304 304 304 303 304 304 304 304 305 305 306 306 307 308 309 310 311 311 312 312 312 312 312 313 313 313 314 314 314 313 313 314 315 316 318 319 319 319 319
Wind_Speed
3 3 3 3 3 4 4 4 3 2 4 4 3 4 4 4 4 5 6 7 7 7 7 9 11 11 12 14 14 13 14 15 15 14 14 14 18 23 24 20 15 14 15 17 20 21 21 23 25 27 26 25 25 25 24 24 24 23 21 19 18 16 16 15 15 16 16 16 16 15 15 15 15 14
5 4 4 4 5 4 4 5 5 5 4 3 4 6 5 5 5 6 8 8 7 7 8 8 9 11 12 14 15 11 11 15 16 14 15 17 20 23 23 18 14 14 16 18 21 21 20 22 25 26 25 26 27 24 24 25 23 22 21 20 18 17 16 15 15 15 15 15 14 13 13 14 14 13
4 5 7 8 7 7 7 7 6 6 5 3 4 6 7 7 8 7 9 10 8 8 10 10 10 11 10 12 16 14 11 14 17 16 16 18 21 23 21 16 15 17 19 19 21 21 20 22 25 24 25 28 27 25 26 25 23 22 21 19 19 17 16 16 15 15 15 15 15 13 12 13 13 13
4 6 8 8 8 8 8 8 6 6 6 5 5 7 8 9 9 8 9 11 11 10 11 12 11 11 11 12 13 14 14 14 16 17 16 18 20 18 17 16 17 19 19 20 21 20 21 23 24 23 25 28 27 27 28 25 22 22 20 19 18 17 16 16 15 16 16 16 15 14 13 12 12 12
7 8 9 8 7 7 7 7 7 6 6 7 7 8 10 9 9 10 10 12 14 13 12 13 13 12 12 11 11 13 16 15 16 16 16 17 17 15 15 16 17 17 18 20 20 20 21 22 21 22 25 27 27 29 29 25 22 22 21 19 18 17 16 16 15 16 15 16 16 15 14 13 12 12
8 8 9 8 7 6 6 6 5 5 6 7 7 8 9 8 8 9 10 11 15 16 14 13 14 13 12 13 13 14 16 15 15 15 15 16 16 15 15 15 16 16 17 19 19 20 21 20 20 23 24 24 25 29 29 25 23 22 21 19 17 17 17 17 16 15 15 15 16 16 15 13 13 12
7 7 8 7 6 6 5 6 6 6 7 8 8 8 9 9 9 9 9 11 15 16 14 13 14 13 12 14 14 13 13 13 13 14 15 15 16 15 15 15 15 16 17 19 19 20 21 21 21 22 20 21 25 29 28 26 25 23 21 19 17 19 19 19 18 17 16 15 15 16 16 15 14 13
7 7 7 7 7 6 7 8 9 8 7 7 8 9 9 9 9 9 10 12 14 14 14 14 14 13 14 14 13 13 14 13 14 15 15 16 17 15 14 14 15 16 18 18 18 20 22 21 19 18 19 22 26 28 27 26 25 23 21 19 18 20 22 21 20 19 17 15 15 15 16 16 15 14
8 9 8 8 8 7 8 9 8 7 7 7 8 8 8 8 9 10 11 12 12 13 14 15 14 13 14 14 13 14 16 16 16 16 16 16 17 17 17 16 16 16 17 17 19 21 20 18 17 19 21 25 27 28 27 25 23 20 20 20 19 21 24 24 22 21 19 17 15 15 15 16 16 14
9 10 9 8 8 8 8 9 8 8 8 8 8 8 8 9 11 11 11 11 11 12 14 16 16 15 15 15 14 15 15 15 17 17 16 16 17 20 21 19 17 17 19 21 23 22 18 17 18 21 25 27 28 28 25 21 19 18 19 20 21 23 26 26 24 21 20 18 16 15 15 15 16 16
9 10 9 8 9 9 9 9 9 9 9 9 8 8 10 11 11 11 11 11 12 13 14 15 16 16 15 16 15 14 15 16 17 17 17 19 20 20 18 16 18 21 24 25 24 21 19 21 24 27 29 31 29 26 21 18 18 19 18 18 21 24 27 27 25 21 20 19 18 17 16 16 16 16
9 10 10 10 11 12 12 11 10 9 9 9 9 10 11 11 12 12 13 14 14 15 16 16 16 16 16 17 16 16 17 18 17 17 18 20 20 17 15 17 22 25 26 26 24 23 25 28 31 33 33 31 27 24 20 17 17 17 17 20 22 25 26 26 25 22 20 19 18 18 17 17 17 17
10 10 11 11 12 13 12 12 13 12 11 13 14 14 15 15 15 16 17 17 16 16 17 17 17 17 17 17 16 17 17 17 17 17 17 18 18 20 22 23 24 24 26 27 28 29 31 34 36 35 32 28 26 23 19 18 18 18 20 23 25 26 26 24 22 21 21 21 20 19 18 17 17 17
11 11 11 11 12 13 13 13 14 16 16 17 18 18 18 18 18 18 18 18 18 18 18 18 18 18 17 16 16 17 17 17 17 18 19 21 23 25 26 25 24 24 27 30 33 34 35 37 36 32 28 26 25 22 20 20 20 21 23 25 26 26 25 22 20 22 23 22 21 21 20 18 17 17
12 13 12 12 12 14 15 14 14 16 17 17 17 16 16 16 16 17 18 18 19 19 19 20 19 19 19 18 18 18 17 16 18 20 21 22 23 24 25 27 28 28 30 34 37 38 37 35 32 28 26 25 25 23 22 21 20 20 23 26 27 26 24 21 21 24 25 24 23 23 21 20 19 18
13 13 13 13 13 13 13 12 12 15 16 17 17 16 15 15 16 17 18 19 20 20 20 21 21 21 21 21 21 20 19 20 21 22 22 22 22 23 25 29 32 34 34 35 38 39 36 31 28 27 26 25 25 25 24 22 20 20 24 26 26 24 22 22 24 27 28 27 26 26 23 21 21 20
14 13 14 15 16 16 15 13 12 14 16 18 19 18 17 18 18 19 19 19 19 19 20 21 22 22 22 23 23 22 21 22 21 22 23 23 23 24 27 32 36 38 36 34 35 37 33 29 29 28 26 24 24 24 24 22 21 22 24 24 23 22 22 23 26 29 29 28 29 28 27 25 23 21
14 15 17 19 19 19 19 17 15 16 17 19 20 20 21 21 20 18 18 17 18 18 19 21 23 23 22 23 23 22 22 21 21 23 25 26 28 30 33 36 38 38 34 29 29 31 30 28 29 28 25 25 24 23 21 20 21 22 21 21 21 22 24 25 27 28 28 28 29 29 29 28 26 24
17 18 19 20 20 20 20 19 18 18 18 19 20 21 21 20 18 17 17 17 18 20 21 22 22 20 19 20 21 22 22 23 23 25 28 30 32 33 34 35 36 34 29 23 22 27 29 27 26 26 25 25 24 22 20 20 19 18 19 21 23 23 24 25 26 27 27 27 27 28 28 28 27 26
19 19 19 19 20 20 20 19 18 18 19 20 20 20 19 19 20 19 17 16 18 20 20 21 21 20 19 20 21 22 24 25 27 29 30 30 30 30 32 33 32 30 27 23 21 24 26 24 23 23 24 26 26 24 23 21 20 20 22 24 25 24 24 25 26 27 26 24 25 26 27 27 25 24
21 21 21 20 21 21 20 19 19 19 20 20 20 21 20 21 22 20 17 19 21 21 20 21 23 24 23 23 23 23 25 27 29 31 30 29 27 28 30 30 30 29 27 24 20 21 23 23 23 25 27 28 29 28 28 27 26 26 26 25 24 25 26 26 25 25 24 24 25 26 26 25 23 23
20 21 21 21 22 22 21 20 20 21 21 21 22 23 23 23 22 20 20 23 25 23 22 22 23 23 22 23 24 24 24 25 26 27 26 24 23 24 25 25 26 26 24 20 20 22 25 26 27 29 31 32 32 31 32 31 29 28 28 27 26 25 24 24 24 23 23 23 25 26 26 25 23 22
20 21 21 21 22 21 20 19 19 20 21 21 22 22 21 22 21 20 22 24 24 24 23 22 21 21 22 23 24 24 23 21 20 20 21 21 20 21 22 22 24 24 23 21 22 25 27 28 29 31 33 35 35 33 32 32 31 29 28 28 27 25 24 24 24 24 24 24 24 25 25 24 24 24
17 19 21 22 21 20 19 18 18 19 20 21 20 20 20 20 21 21 22 22 22 23 21 19 18 18 20 21 20 20 21 20 18 17 18 19 20 20 21 22 23 23 23 23 24 25 27 29 30 30 30 32 35 35 33 33 31 30 28 27 27 27 26 27 27 25 24 25 25 24 23 22 24 26
13 15 17 19 20 19 19 19 19 19 19 18 17 17 17 17 18 18 19 19 19 18 16 15 14 15 17 17 16 16 17 17 16 16 16 18 20 20 21 23 23 23 23 24 25 26 28 29 29 29 28 28 31 34 35 34 31 29 27 27 28 28 28 29 28 26 25 25 25 24 24 24 25 27
13 14 14 14 15 14 14 15 15 15 15 13 12 11 12 12 12 12 13 13 13 12 11 12 14 15 16 16 15 15 16 16 16 17 18 19 20 19 19 20 22 23 24 24 24 25 27 27 26 26 26 27 29 32 33 33 31 29 28 29 30 30 29 29 29 28 26 25 25 24 24 24 25 26
11 11 11 10 10 10 11 11 11 11 11 11 10 10 10 9 10 10 10 9 9 10 12 13 14 15 15 15 15 17 17 17 17 18 19 19 19 19 19 19 20 21 22 22 22 21 21 23 23 24 24 26 29 30 32 32 32 31 31 31 31 31 30 30 30 29 27 25 24 24 24 24 25 26
7 7 8 8 9 9 9 10 11 11 11 10 10 10 9 8 8 9 9 10 12 14 15 14 14 14 14 15 16 17 18 19 19 19 19 19 19 20 21 21 21 21 22 22 20 18 18 21 23 24 25 26 28 30 31 31 32 33 34 34 34 33 33 33 32 31 30 28 25 24 25 25 26 26
7 7 9 9 9 9 9 9 10 11 11 11 10 10 9 8 7 8 11 13 16 16 16 16 17 17 17 18 18 18 19 20 19 19 20 21 21 22 23 23 22 21 20 19 17 14 15 19 22 24 26 26 27 28 30 33 35 35 35 36 37 37 35 34 34 33 32 29 26 25 26 27 27 27
8 8 9 9 9 10 9 8 8 9 11 11 9 8 10 9 7 9 13 15 17 18 18 18 19 19 20 20 19 19 19 17 16 18 20 23 24 24 24 24 23 21 19 15 12 10 12 15 18 21 24 26 27 29 30 33 37 37 36 36 37 37 36 35 33 31 29 28 28 28 29 29 28 28
9 9 9 9 9 9 7 5 6 8 10 10 8 8 11 10 7 10 13 15 18 19 17 18 19 19 19 19 18 18 18 16 16 18 20 22 23 23 23 24 24 23 20 16 12 12 15 16 17 20 22 25 29 31 31 33 36 37 37 35 34 34 34 32 29 27 27 29 31 33 33 34 33 32
8 8 8 6 7 8 5 5 5 5 6 8 7 8 10 9 7 11 13 14 16 16 15 16 17 17 17 17 17 18 17 16 18 19 19 20 21 21 22 23 23 24 23 21 19 20 20 20 21 22 23 26 28 30 30 30 31 31 32 31 30 30 30 28 27 27 27 29 33 37 39 40 39 37
7 6 4 4 6 7 5 5 4 3 3 6 8 9 9 8 7 11 13 14 16 17 16 16 17 17 18 18 18 19 19 20 21 21 20 21 22 22 22 23 23 24 25 25 25 24 24 24 26 28 29 29 29 27 26 26 26 26 27 28 27 26 24 23 23 26 28 32 39 43 45 44 42 40
6 3 3 4 5 6 4 5 5 5 5 7 9 9 8 7 7 11 14 16 17 17 16 15 16 17 18 18 19 20 22 23 24 23 22 22 22 22 23 23 23 23 23 24 25 25 25 28 31 33 33 31 30 27 22 20 21 21 21 21 21 22 24 25 27 31 36 39 41 42 44 44 43 41
3 1 3 4 5 6 4 4 6 7 6 7 9 9 8 7 8 10 14 18 19 17 15 15 17 18 18 18 19 21 22 22 22 22 21 21 21 21 22 21 20 20 22 24 25 26 28 30 32 32 32 32 32 30 23 15 14 19 22 24 25 29 32 35 37 38 39 38 35 34 38 41 42 40
2 2 3 4 4 5 5 5 6 8 7 8 9 9 9 9 9 11 15 19 19 17 15 18 20 20 19 19 20 20 20 20 20 20 20 20 20 20 20 19 20 23 24 24 25 28 30 29 27 27 29 30 29 30 29 25 22 25 31 34 36 37 38 38 38 36 35 33 31 30 31 35 36 36
5 2 3 4 4 5 6 6 7 8 8 8 9 10 10 10 12 14 17 18 17 15 17 20 21 20 20 20 20 20 19 19 19 19 20 20 20 20 20 21 22 23 23 24 27 28 27 25 24 24 25 25 24 27 35 38 35 32 34 37 38 38 37 36 36 35 34 33 31 30 30 33 36 38
5 4 4 6 6 7 7 8 9 9 9 10 10 10 11 12 13 16 17 16 15 17 20 20 19 19 20 20 20 19 19 18 18 18 19 20 20 21 22 23 23 23 24 27 29 27 24 23 23 22 22 24 27 31 38 44 43 38 36 34 33 33 34 34 35 37 38 37 37 36 36 37 39 41
5 4 6 8 7 7 8 8 9 9 9 9 10 11 12 13 14 16 17 17 17 19 19 18 17 17 18 18 17 18 19 19 19 19 20 20 20 20 21 21 23 25 28 29 29 27 25 23 22 21 22 26 31 33 36 40 41 40 38 34 30 29 31 33 35 38 39 38 39 40 41 41 42 42
4 5 7 8 7 7 7 8 9 10 10 10 11 11 12 13 15 18 18 17 18 19 18 16 16 17 16 16 17 18 18 17 18 18 18 19 19 20 21 23 25 27 26 26 26 27 27 26 24 25 27 29 31 31 32 32 33 33 33 32 30 29 30 30 32 35 36 37 40 43 45 45 45 44
6 7 9 9 9 9 8 8 9 10 10 11 11 11 12 14 15 16 16 16 16 17 16 16 15 15 16 17 17 18 18 18 18 17 18 19 21 23 24 25 26 25 24 25 27 28 28 28 28 29 30 30 29 28 28 29 30 30 31 32 33 32 30 29 30 33 36 38 39 40 41 41 42 43
6 8 9 9 9 11 12 13 14 13 12 12 12 13 13 14 14 13 13 13 14 15 15 15 16 17 18 19 19 18 18 18 18 19 21 23 24 26 26 25 24 24 24 25 26 27 28 30 31 32 32 29 27 27 28 29 31 32 34 35 35 34 33 34 33 32 32 32 33 34 37 39 40 41
11 12 11 10 8 8 10 12 14 14 13 13 14 14 14 14 13 13 13 12 11 13 13 14 16 17 16 15 15 15 14 15 18 21 23 24 24 24 25 25 25 25 26 27 28 30 31 32 32 32 30 28 26 28 30 30 32 34 35 35 35 35 36 36 34 33 32 32 31 31 32 33 35 38
15 16 16 15 13 11 10 9 10 12 13 13 13 13 13 13 14 14 14 13 12 13 12 12 14 16 16 16 17 18 18 19 21 23 25 25 24 24 23 24 25 26 28 30 32 33 33 33 31 29 28 27 27 27 29 31 33 34 35 35 36 36 35 35 36 38 40 38 33 29 27 27 29 33
16 18 19 19 18 16 14 13 12 12 13 14 14 14 14 13 13 14 14 14 14 15 13 12 14 18 21 22 22 22 22 23 23 23 24 25 26 27 26 25 25 26 28 29 31 32 32 31 30 28 27 27 27 27 29 31 32 33 34 35 35 35 35 38 40 42 42 39 35 30 29 30 32 33
Wind_Direction
174 182 206 182 209 262 292 276 246 242 270 274 280 288 283 280 282 273 268 269 266 263 272 293 312 316 317 324 329 335 338 329 322 321 320 314 302 302 313 327 331 320 311 317 329 333 334 339 343 345 344 343 341 342 345 346 346 345 344 343 340 337 335 336 338 338 337 336 336 334 330 327 325 326
191 197 208 201 202 215 239 260 273 285 272 244 244 264 278 272 265 269 274 280 283 282 280 283 296 306 315 319 314 314 322 316 311 309 304 299 298 304 314 326 335 328 318 321 326 326 328 335 340 340 341 341 341 344 346 345 345 345 344 343 343 342 341 342 343 344 344 341 338 332 326 325 324 324
212 220 214 211 209 206 212 223 250 278 277 269 262 263 274 276 267 271 282 286 287 286 290 290 289 293 301 304 303 304 305 299 295 295 296 298 300 305 315 332 338 327 319 322 325 323 325 333 336 334 336 338 339 344 346 344 343 344 345 344 344 344 343 343 344 345 347 346 341 332 322 320 321 321
226 238 229 225 220 215 221 219 222 255 271 271 264 259 266 274 276 279 283 289 297 297 294 298 297 294 290 290 298 303 298 290 291 297 299 298 300 312 329 338 328 315 315 322 325 324 326 332 331 328 332 334 335 340 343 342 341 342 344 344 343 344 343 343 343 343 344 345 344 336 322 315 314 315
226 238 243 245 244 238 243 240 228 239 261 265 265 264 265 266 270 271 272 282 296 300 297 297 299 300 299 298 299 296 292 290 295 303 308 308 312 325 330 322 312 310 317 324 324 323 327 330 327 326 330 330 329 334 338 340 342 340 341 342 342 343 343 342 342 341 341 342 342 339 327 314 308 308
238 245 253 257 258 255 269 282 268 249 253 264 271 273 273 275 275 275 280 288 294 298 300 299 301 304 303 298 294 291 293 299 304 310 313 313 313 315 312 309 310 314 319 321 320 323 329 331 327 326 327 323 323 328 333 339 342 338 338 341 343 345 345 342 339 338 338 337 338 338 333 319 308 303
257 258 261 269 271 264 276 289 276 253 246 250 256 264 271 274 275 278 283 286 289 295 302 303 303 306 304 298 299 304 306 306 305 305 305 305 306 307 306 308 313 316 315 317 321 326 327 325 323 324 324 319 320 325 330 335 337 335 336 339 345 349 347 344 339 335 333 332 332 334 334 327 314 303
258 259 261 266 264 255 256 255 250 252 260 261 258 263 268 270 273 274 270 274 282 290 297 302 306 308 309 311 318 322 317 310 304 305 306 311 318 322 319 316 315 314 314 318 322 320 317 320 326 328 323 318 319 322 326 329 328 330 332 335 342 348 347 344 340 334 330 327 326 327 329 329 322 308
251 254 254 255 255 252 257 263 263 264 266 263 261 266 270 274 275 272 271 279 287 292 297 305 311 312 316 324 326 318 314 313 313 316 317 321 331 335 330 324 318 314 317 319 318 317 321 332 335 326 317 317 320 322 321 321 322 327 329 330 334 340 342 340 337 334 330 324 322 322 323 326 325 317
263 264 258 256 259 255 254 260 265 264 261 260 263 268 270 268 269 274 281 290 296 300 303 307 311 313 317 318 312 307 309 312 318 324 326 330 334 331 326 325 323 320 319 318 321 328 335 334 325 317 317 322 325 324 321 321 326 330 328 325 326 331 335 335 333 332 330 326 321 318 318 320 321 320
263 270 272 270 272 272 267 261 257 258 264 269 272 274 274 273 277 283 285 284 284 288 291 293 299 303 305 305 307 313 317 315 316 322 323 324 326 324 323 324 321 318 317 320 326 332 327 321 319 320 324 327 327 327 328 330 330 329 325 321 322 326 330 331 329 329 330 328 324 320 316 315 316 317
265 271 275 274 279 284 284 278 271 261 258 264 268 265 264 267 269 269 270 273 276 280 283 289 295 299 303 309 318 325 325 321 320 321 320 319 319 316 312 310 312 315 319 325 329 326 322 321 323 324 326 328 330 333 335 335 331 327 323 323 324 325 327 329 330 330 329 329 326 322 319 315 312 312
269 270 270 270 276 282 280 276 279 281 279 282 282 275 268 268 270 273 276 280 284 286 289 294 299 301 304 310 315 318 318 319 320 319 314 309 305 303 303 307 314 320 324 326 325 323 323 323 323 324 326 330 334 337 339 340 337 330 322 321 324 326 328 330 332 334 333 330 325 322 319 316 313 310
266 270 272 275 277 281 281 277 279 284 286 287 286 282 276 273 277 280 282 286 290 292 293 294 296 297 298 301 303 303 305 308 310 307 302 299 301 305 309 314 319 323 324 323 321 321 322 323 324 326 329 333 338 342 343 338 329 320 316 318 321 325 329 330 331 334 335 333 329 323 316 312 310 308
269 269 270 274 280 287 290 286 281 283 284 283 284 283 280 279 282 287 289 293 295 297 298 297 297 297 297 299 301 302 304 304 301 299 298 301 307 312 315 316 317 320 321 320 318 319 323 325 327 328 332 338 341 341 339 332 323 318 316 318 320 324 328 328 328 330 332 332 331 328 320 310 303 301
287 284 282 280 279 280 282 282 283 281 279 281 284 283 281 280 283 287 290 292 294 296 297 297 297 298 300 304 307 308 307 303 302 303 305 308 312 313 313 312 313 315 317 317 317 319 325 330 330 330 335 340 340 336 333 333 331 323 316 316 321 325 327 326 325 326 328 329 330 330 328 318 305 295
297 292 287 282 275 269 266 265 269 271 272 279 282 281 282 283 284 284 283 285 290 295 297 297 299 302 305 308 310 309 306 303 303 305 307 309 308 306 305 305 307 310 313 317 318 319 324 330 328 328 331 332 327 324 325 328 324 315 313 319 326 327 325 323 322 323 325 327 329 330 331 328 319 304
282 275 274 276 276 274 272 268 264 265 270 275 277 279 282 285 286 285 283 285 290 293 294 296 297 298 301 305 307 305 303 301 301 301 303 304 302 300 300 300 303 307 313 320 320 316 319 323 321 320 321 317 313 312 313 312 309 310 316 322 323 322 320 320 321 321 322 324 326 327 329 330 328 321
265 266 270 274 275 276 279 276 268 266 271 273 274 277 280 282 284 287 290 294 292 289 289 292 293 293 294 298 300 298 297 296 295 294 295 297 299 299 299 299 302 307 313 320 316 307 309 316 319 318 315 311 308 308 306 306 310 318 319 315 313 316 317 317 318 319 320 321 321 322 324 326 326 325
261 265 269 273 275 276 278 277 272 271 276 278 277 277 278 278 280 285 291 288 281 279 281 285 288 289 289 290 290 288 287 288 289 290 291 294 298 300 300 303 307 310 313 318 313 303 304 312 315 310 307 306 306 306 305 306 309 312 309 307 309 312 313 313 315 318 321 321 320 320 321 321 322 321
262 264 269 274 277 277 276 275 276 277 279 280 279 279 279 279 281 287 288 281 277 278 278 276 277 279 283 286 284 283 284 288 290 292 293 296 299 301 304 307 310 312 316 320 317 307 305 308 306 301 301 303 304 304 305 305 305 306 307 308 310 312 311 312 313 315 317 319 319 320 320 320 319 316
263 263 267 271 274 274 272 273 274 275 277 280 281 282 282 282 284 286 282 280 283 285 282 276 274 276 281 285 286 286 287 289 292 295 298 300 303 304 307 310 312 314 318 318 312 308 307 306 305 304 304 302 301 304 307 308 309 310 311 312 314 315 314 313 312 312 312 313 314 315 317 319 317 312
264 265 267 268 270 272 273 274 275 276 280 284 286 286 286 286 286 285 284 286 289 290 288 285 283 283 284 286 287 287 285 284 289 294 297 300 303 304 305 310 313 315 315 313 310 309 307 306 307 310 311 309 307 309 311 311 312 314 314 316 317 317 315 313 311 311 311 311 311 311 312 313 314 311
271 270 267 266 268 270 274 279 282 284 286 287 288 289 289 290 290 289 289 291 292 294 296 298 297 293 289 288 288 286 284 284 287 291 293 297 305 307 308 311 313 312 312 313 315 312 309 309 310 312 314 312 310 311 313 312 314 317 319 321 321 319 317 314 313 312 310 308 309 310 310 309 308 308
271 270 271 271 271 272 276 283 291 294 295 295 297 298 298 298 297 296 295 296 297 298 299 300 299 295 293 296 298 296 296 298 301 304 306 307 309 310 310 311 313 312 313 316 319 318 315 316 317 317 316 313 310 312 313 314 317 321 322 323 323 323 322 321 320 317 313 308 305 305 307 307 305 305
272 277 286 289 285 283 287 296 304 308 309 313 317 316 315 316 314 312 314 314 310 307 304 301 303 304 307 313 315 311 311 312 312 312 312 311 311 311 312 313 313 313 315 317 319 317 315 316 319 321 320 318 316 317 317 317 320 323 322 323 325 325 326 327 326 324 319 313 308 305 304 305 304 304
288 294 305 310 310 310 315 319 319 320 322 325 326 326 331 337 335 334 334 328 315 311 311 309 308 311 316 318 315 314 314 314 312 311 309 309 311 312 313 315 314 315 318 319 320 320 317 317 320 322 323 322 321 321 321 320 320 321 321 322 325 327 329 330 329 329 326 321 316 311 307 304 302 302
295 299 302 308 314 316 318 320 318 320 324 324 325 329 333 336 343 341 327 309 304 309 313 313 313 315 316 316 314 314 314 314 315 315 312 310 311 311 311 313 313 314 316 318 323 330 326 321 322 321 320 320 319 318 318 317 318 320 320 321 322 324 327 328 328 329 330 327 320 314 310 308 305 303
295 300 303 307 312 315 317 320 320 324 329 329 335 339 331 333 345 330 305 299 304 310 314 316 317 317 316 316 317 316 317 320 323 321 316 314 314 315 314 314 314 316 318 322 331 336 326 319 320 319 317 316 315 315 315 314 315 316 318 318 319 320 322 325 327 327 327 325 321 317 315 315 312 308
305 309 311 310 311 313 316 322 331 340 338 335 344 342 327 333 339 310 299 304 308 312 317 320 320 320 319 320 321 319 321 325 324 319 316 317 319 321 321 320 322 325 330 336 338 323 304 305 310 311 310 309 308 308 310 311 311 312 314 317 319 318 320 323 326 328 326 323 319 317 316 315 315 313
311 314 312 312 314 316 321 337 355 358 345 338 346 336 320 326 327 307 306 309 307 312 321 320 317 319 320 320 320 320 322 322 318 316 318 319 322 325 325 326 328 332 337 340 331 311 303 302 299 297 297 299 301 304 307 308 309 311 313 317 320 320 322 325 326 325 321 316 313 312 312 313 314 313
319 316 315 328 333 332 352 18 6 359 343 328 323 317 316 327 328 310 306 305 306 317 326 320 316 321 323 322 324 323 323 324 322 323 325 325 325 328 330 331 333 334 333 330 324 321 320 316 309 305 305 306 309 312 312 311 313 318 321 323 325 325 324 324 319 314 310 308 308 310 310 310 311 311
324 317 334 9 345 328 353 13 338 304 300 304 299 300 313 330 325 308 303 303 311 324 330 325 325 331 331 332 333 329 328 330 330 332 334 332 331 333 334 333 334 334 332 329 329 331 328 322 319 319 320 320 322 324 325 325 328 332 329 325 322 319 316 313 307 302 301 304 307 308 307 306 308 311
325 332 27 26 334 313 341 2 326 296 291 304 306 309 320 331 322 311 305 303 313 327 332 329 332 335 334 335 333 329 328 330 331 333 334 333 333 333 331 331 333 333 329 326 328 328 323 319 320 321 321 321 320 323 332 338 335 329 319 310 307 303 299 297 297 298 301 305 308 309 307 305 305 308
332 29 26 359 314 308 332 344 324 315 318 322 321 323 329 330 324 315 306 307 319 333 335 331 333 335 334 332 328 326 328 330 331 333 334 333 333 332 332 333 329 322 319 320 320 318 318 322 328 329 326 324 320 318 323 328 319 308 302 299 299 299 298 299 302 304 306 310 313 315 313 311 310 311
3 95 32 350 314 318 331 322 314 321 327 326 325 330 333 330 322 311 306 315 331 340 332 328 333 335 333 333 331 331 335 336 335 336 335 334 334 333 332 330 322 319 321 321 319 320 326 334 339 338 333 330 325 317 312 310 308 308 310 309 307 308 310 311 312 314 316 319 323 323 320 316 313 312
15 62 18 330 305 314 321 314 313 317 319 320 323 328 330 327 319 311 313 326 338 332 322 327 335 335 335 336 336 336 337 336 335 335 333 332 333 331 328 326 324 325 325 320 320 328 334 336 337 337 333 330 326 316 310 311 312 314 318 320 318 318 320 323 322 322 321 320 319 316 310 306 302 300
22 36 347 317 312 318 320 320 320 321 325 330 328 324 322 320 315 314 322 332 332 322 325 335 339 336 336 338 338 336 334 332 332 332 329 329 330 329 328 326 324 320 317 316 321 327 327 326 330 332 328 323 320 315 312 313 313 313 318 325 327 325 326 325 321 317 314 313 311 309 306 303 300 300
8 1 320 305 310 317 318 322 323 324 328 327 322 323 327 323 318 321 328 333 331 330 337 343 340 337 338 338 334 332 331 330 330 328 326 326 325 324 323 320 317 317 319 322 324 323 321 321 322 318 312 312 312 311 309 310 311 312 316 322 325 323 319 316 313 312 312 312 312 310 308 307 306 307
325 308 292 291 299 306 310 314 314 313 316 314 314 321 324 318 318 325 332 337 339 339 340 339 337 338 336 331 328 328 328 327 326 324 324 322 317 314 312 312 316 321 324 323 321 319 319 319 315 311 313 314 313 311 309 307 307 310 312 313 313 313 312 311 312 311 309 309 309 308 308 310 313 315
300 287 285 293 301 302 300 297 296 301 310 315 317 318 316 315 321 327 332 335 335 331 329 331 331 326 320 319 321 321 320 319 318 316 312 308 306 309 312 315 320 324 321 317 315 314 313 313 312 315 320 321 318 315 311 307 306 307 308 308 310 311 310 307 305 303 302 305 309 311 312 313 314 314
266 266 270 280 291 293 287 281 283 290 301 308 309 310 312 317 321 322 323 326 326 323 324 326 322 318 319 320 318 315 316 319 316 310 305 304 307 312 316 317 317 316 313 312 310 308 308 310 314 318 321 321 318 313 308 305 305 307 307 309 310 310 309 309 308 307 306 308 310 309 309 310 310 309
255 256 253 248 255 274 281 283 287 293 298 304 310 313 314 314 312 308 307 312 318 321 323 323 321 321 321 314 305 301 304 309 308 307 309 312 314 316 318 318 315 311 308 306 304 304 306 310 314 318 318 316 313 309 306 305 305 306 307 309 310 310 312 313 313 310 308 307 305 303 302 304 304 303
271 263 256 248 245 250 259 270 283 289 292 296 302 304 304 305 308 308 306 305 305 307 310 316 317 309 295 286 287 290 294 299 304 309 313 316 316 312 310 311 311 311 310 310 310 312 313 315 317 319 316 313 311 309 307 306 307 307 308 309 310 312 313 313 311 310 310 311 312 312 310 306 302 300
280 270 264 259 256 258 264 272 282 288 291 295 299 300 298 299 304 310 311 310 307 304 304 306 303 294 288 287 289 293 297 303 309 313 317 320 321 319 315 313 312 312 312 314 315 315 316 316 317 317 314 311 309 308 307 308 308 309 309 310 311 312 312 312 313 314 314 314 314 313 310 306 302 299